SCP
0 0 0 0 0 0 0 0 0 0 0 0 0 0 0 0 0 0 0 0 0 0 0 0 0 0 0 0 0 0 0 0 0 0 0 0 0 0 0 0 0 0 0
0 0 0 0 0 0 0 0 0 0 0 0 0 0 0 0 0 0 0 0 0 0 0 0 0 0 0 0 0 0 0 0 0 0 0 0 0 0 0 0 0 0 0
0 0 0 0 0 0 0 0 0 0 0 0 0 0 0 0 0 0 0 0 0 0 0 0 0 0 0 0 0 0 0 0 0 0 0 0 0 0 0 0 0 0 0
0 0 0 0 0 0 0 0 0 0 0 0 0 0 0 0 0 0 0 0 0 0 0 0 0 0 0 0 0 0 0 0 0 0 0 0 0 0 0 0 0 0 0
0 0 0 0 0 0 0 0 0 0 0 0 0 0 0 0 0 0 0 0 0 0 0 0 0 0 0 0 0 0 0 0 0 0 0 0 0 0 0 0 0 0 0
0 0 0 0 0 0 0 0 0 0 0 0 0 0 0 0 0 0 0 0 0 0 0 0 0 0 0 0 0 0 0 0 0 0 0 0 0 0 0 0 0 0 0
0 0 0 0 0 0 0 0 0 0 0 0 0 0 0 0 0 0 0 0 0 0 0 0 0 0 0 0 0 0 0 0 0 0 0 0 0 0 0 0 0 0 0
0 0 0 0 0 0 0 0 0 0 0 0 0 0 0 0 0 0 0 0 0 0 0 0 0 0 0 0 0 0 0 0 0 0 0 0 0 0 0 0 0 0 0
0 0 0 0 0 0 0 0 0 0 0 0 0 0 0 0 0 0 0 0 0 0 0 0 0 0 0 0 0 0 0 0 0 0 0 0 0 0 0 0 0 0 0
0 0 0 0 0 0 0 0 0 0 0 0 0 0 0 0 0 0 0 0 0 0 0 0 0 0 0 0 0 0 0 0 0 0 0 0 0 0 0 0 0 0 0
0 0 0 0 0 0 0 0 0 0 0 0 0 0 0 0 0 0 0 0 0 0 0 0 0 0 0 0 0 0 0 0 0 0 0 0 0 0 0 0 0 0 0
0 0 0 0 0 0 0 0 0 0 0 0 0 0 0 0 0 0 0 0 0 0 0 0 0 0 0 0 0 0 0 0 0 0 0 0 0 0 0 0 0 0 0
0 0 0 0 0 0 0 0 0 0 0 0 0 0 0 0 0 0 0 0 0 0 0 0 0 0 0 0 0 0 0 0 0 0 0 0 0 0 0 0 0 0 0
0 0 0 0 0 0 0 0 0 0 0 0 0 0 0 0 0 0 0 0 0 0 0 0 0 0 0 0 0 0 0 0 0 0 0 0 0 0 0 0 0 0 0
0 0 0 0 0 0 0 0 0 0 0 0 0 0 0 0 0 0 0 0 0 0 0 0 0 0 0 0 0 0 0 0 0 0 0 0 0 0 0 0 0 0 0
0 0 0 0 0 0 0 0 0 0 0 0 0 0 0 0 0 0 0 0 0 0 0 0 0 0 0 0 0 0 0 0 0 0 0 0 0 0 0 0 0 0 0
0 0 0 0 0 0 0 0 0 0 0 0 0 0 0 0 0 0 0 0 0 0 0 0 0 0 0 0 0 0 0 0 0 0 0 0 0 0 0 0 0 0 0
0 0 0 0 0 0 0 0 0 0 0 0 0 0 0 0 0 0 0 0 0 0 0 0 0 0 0 0 0 0 0 0 0 0 0 0 0 0 0 0 0 0 0
0 0 0 0 0 0 0 0 0 0 0 0 0 0 0 0 0 0 0 0 0 0 0 0 0 0 0 0 0 0 0 0 0 0 0 0 0 0 0 0 0 0 0
0 0 0 0 0 0 0 0 0 0 0 0 0 0 0 0 0 0 0 0 0 0 0 0 0 0 0 0 0 0 0 0 0 0 0 0 0 0 0 0 0 0 0
0 0 0 0 0 0 0 0 0 0 0 0 0 0 0 0 0 0 0 0 0 0 0 0 0 0 0 0 0 0 0 0 0 0 0 0 0 0 0 0 0 0 0
0 0 0 0 0 0 0 0 0 0 0 0 0 0 0 0 0 0 0 0 0 0 0 0 0 0 0 0 0 0 0 0 0 0 0 0 0 0 0 0 0 0 0
0 0 0 0 0 0 0 0 0 0 0 0 0 0 0 0 0 0 0 0 0 0 0 0 0 0 0 0 0 0 0 0 0 0 0 0 0 0 0 0 0 0 0
0 0 0 0 0 0 0 0 0 0 0 0 0 0 0 0 0 0 0 0 0 0 0 0 0 0 0 0 0 0 0 0 0 0 0 0 0 0 0 0 0 0 0
0 0 0 0 0 0 0 0 0 0 0 0 0 0 0 0 0 0 0 0 0 0 0 0 0 0 0 0 0 0 0 0 0 0 0 0 0 0 0 0 0 0 0
0 0 0 0 0 0 0 0 0 0 0 0 0 0 0 0 0 0 0 0 0 0 0 0 0 0 0 0 0 0 0 0 0 0 0 0 0 0 0 0 0 0 0
Wind_Speed
2 2 2 2 2 2 3 3 3 3 4 4 4 5 5 6 5 5 3 5 7 8 9 9 8 8 8 8 7 7 7 6 6 6 6 6 6 6 6 6 6 6 7
2 2 2 2 2 2 2 3 3 3 3 3 4 5 5 5 6 6 5 4 6 7 8 8 8 8 8 8 8 7 7 7 6 6 7 7 7 7 7 7 7 7 7
2 2 2 2 1 1 2 2 3 3 3 3 4 5 4 5 5 5 5 4 4 6 7 8 8 8 8 8 7 6 6 6 6 6 6 7 7 8 8 8 7 8 8
2 2 2 1 1 1 1 2 2 2 3 3 4 4 4 4 6 5 4 4 4 4 6 7 7 6 6 7 7 7 6 6 6 6 6 7 7 8 8 8 8 9 9
2 2 1 1 1 1 1 1 1 2 3 3 4 4 4 4 4 4 5 5 4 4 4 4 5 5 5 6 7 7 7 7 7 7 7 7 8 8 9 9 9 9 10
2 2 1 2 2 2 1 1 1 2 2 3 3 3 4 4 4 4 5 4 4 4 5 4 4 4 6 6 6 7 7 7 7 7 7 8 8 9 9 9 9 10 10
2 2 2 2 2 2 2 1 1 2 2 2 2 3 3 4 4 3 4 4 4 4 4 4 3 3 3 6 6 6 7 7 8 7 8 8 8 9 9 10 10 10 10
1 2 2 2 2 2 2 2 2 1 1 1 2 3 3 3 3 3 3 3 4 3 4 4 4 3 3 3 3 4 5 7 8 8 8 8 9 9 10 9 9 10 10
2 2 2 2 2 2 2 2 2 3 2 2 2 3 3 3 3 3 3 3 3 3 3 3 4 3 3 3 2 3 3 6 8 8 9 9 10 10 10 10 10 10 10
1 2 2 2 2 1 2 2 2 3 3 3 2 3 4 3 3 3 3 3 3 4 4 3 3 3 4 3 2 2 3 5 8 9 10 11 10 10 11 10 10 10 10
1 2 2 2 2 2 2 2 2 3 3 3 3 3 3 3 4 4 5 4 3 3 3 4 4 3 3 3 3 2 4 6 8 10 11 12 11 11 11 10 10 10 10
1 2 2 2 2 2 2 3 3 3 3 4 4 4 4 4 4 4 5 6 5 3 3 3 4 3 3 3 3 3 4 6 8 10 11 10 10 10 10 10 10 10 10
1 2 2 2 2 2 3 3 3 4 4 5 4 4 4 4 4 4 5 5 6 4 4 3 3 3 3 3 3 3 5 5 7 9 10 10 9 8 9 9 10 10 10
2 2 3 2 3 3 3 4 3 4 4 5 5 5 4 4 4 4 4 4 5 5 5 5 3 3 3 3 3 4 4 5 6 7 8 8 7 7 8 9 9 10 10
3 4 3 3 3 3 4 4 3 4 4 4 5 5 5 4 4 4 4 4 5 5 5 4 3 3 2 3 3 4 5 4 5 6 7 6 6 6 7 7 8 9 9
3 3 4 3 3 3 4 4 4 4 5 4 4 5 5 4 4 4 4 4 5 6 5 3 3 3 3 3 3 5 4 4 6 6 6 6 6 6 7 7 8 8 8
3 3 4 4 4 4 4 4 5 5 6 6 5 6 6 6 5 4 4 5 5 5 7 5 3 3 5 4 3 4 4 4 4 4 5 5 6 6 7 7 8 8 8
4 4 4 4 5 5 5 5 6 6 6 7 7 7 7 5 6 5 5 5 5 5 6 7 4 4 5 4 4 4 4 3 4 4 5 6 6 7 7 7 7 8 8
4 4 4 5 5 5 6 6 6 6 7 7 7 7 7 7 7 6 6 6 5 5 5 6 5 3 3 3 4 4 4 4 4 3 5 6 6 7 7 7 8 8 8
4 4 5 5 5 5 6 6 6 7 7 7 7 7 8 8 8 8 7 7 6 6 6 6 5 4 4 3 4 4 4 3 3 3 4 4 5 6 6 7 7 8 8
4 4 4 5 5 5 5 6 7 7 7 8 7 8 8 8 8 8 6 7 6 6 5 5 5 5 4 3 4 3 4 3 4 3 3 3 3 3 3 5 6 6 7
4 4 4 5 5 5 6 8 8 7 7 8 8 8 8 8 9 11 11 11 9 8 7 6 6 6 6 5 4 3 3 3 3 1 3 4 3 3 3 3 5 6 7
4 5 5 5 6 6 7 9 9 8 8 8 8 7 6 6 8 8 9 11 11 12 12 9 8 8 7 5 5 5 5 5 4 2 3 4 3 4 3 4 6 7 7
5 5 6 6 6 7 8 9 9 8 8 8 8 8 8 8 7 7 8 8 8 9 9 9 8 8 6 5 5 5 4 4 4 3 3 4 3 4 4 4 4 6 6
5 6 6 6 7 7 8 9 9 6 7 8 8 8 9 9 9 9 8 8 8 7 7 8 8 7 6 5 5 3 3 3 3 3 2 3 3 3 4 4 3 5 6
6 6 6 7 7 8 8 9 9 6 7 7 7 7 10 11 10 10 9 8 9 8 6 6 7 6 6 6 7 5 4 4 3 3 2 3 2 2 3 3 3 3 4
Wind_Direction
181 180 184 184 193 201 205 214 226 225 232 234 236 240 241 241 241 238 222 202 234 243 243 242 240 239 239 238 239 239 239 241 238 232 233 235 242 250 257 266 271 273 274
196 191 191 196 201 211 220 226 236 240 241 243 246 246 247 247 245 243 248 212 209 230 237 240 241 242 243 241 238 233 232 232 236 237 238 241 244 252 259 265 268 271 276
198 199 193 202 214 219 227 236 240 244 248 249 252 254 254 256 255 252 246 249 224 210 226 239 243 246 247 246 239 232 234 237 239 244 245 248 250 254 259 265 270 272 274
192 198 193 197 206 224 228 233 238 246 246 251 255 255 253 251 253 253 248 243 246 240 216 224 238 243 247 244 239 236 235 236 241 245 247 254 260 262 262 264 268 272 274
194 187 197 194 194 220 229 234 250 257 258 263 267 266 264 258 254 250 247 246 245 248 248 206 212 233 244 243 243 242 238 238 243 248 250 254 258 264 266 268 269 271 273
192 186 195 196 194 208 217 227 242 258 267 273 275 274 272 265 258 253 254 249 245 248 250 249 229 219 226 236 241 246 246 245 246 251 255 258 261 264 266 269 269 269 274
199 187 195 199 197 204 211 224 254 253 262 280 267 267 261 256 252 249 250 248 241 244 244 243 243 244 222 216 230 247 252 253 254 256 259 261 265 268 270 272 273 272 273
205 199 200 197 198 204 209 217 229 256 264 255 263 271 266 246 239 249 249 248 251 247 246 243 240 237 240 233 206 229 252 258 260 260 262 263 265 269 272 277 279 281 280
200 198 198 196 204 216 219 231 230 236 244 245 254 263 264 263 290 243 252 254 258 258 255 248 246 245 243 243 238 213 252 264 263 265 266 265 264 268 271 274 279 284 286
212 189 199 201 200 214 226 230 230 241 241 240 241 256 274 289 277 279 244 248 266 265 265 257 248 249 249 246 243 258 262 260 259 264 267 267 265 267 269 272 276 279 282
238 211 206 207 209 217 230 236 236 240 241 246 246 248 252 259 256 264 273 275 269 265 274 272 262 253 250 247 247 259 262 259 264 267 270 269 268 270 271 273 275 278 280
243 218 215 215 222 227 229 233 231 238 241 244 249 248 249 250 248 253 264 275 279 277 275 268 263 261 258 256 253 256 258 261 267 271 273 274 275 276 277 277 275 276 278
247 242 230 227 228 229 234 235 234 239 241 242 244 250 253 258 263 263 268 276 282 283 271 253 250 257 258 261 256 248 248 259 268 272 274 277 282 282 283 284 281 278 279
257 257 246 242 241 239 238 236 241 243 244 245 249 253 254 255 254 253 257 269 277 272 261 255 243 241 252 262 277 253 260 254 269 275 277 282 288 289 289 287 286 284 283
241 242 237 238 239 238 239 240 242 245 246 248 250 250 253 256 255 254 251 250 260 274 271 259 253 238 259 272 275 268 272 264 267 274 277 281 282 286 289 287 288 290 292
235 236 238 237 240 243 243 242 245 249 247 248 248 250 252 252 250 247 246 248 250 260 270 268 263 269 267 266 271 275 275 268 255 266 274 277 279 282 285 286 287 290 293
235 232 240 244 247 250 248 245 246 251 250 251 248 249 252 253 253 249 246 243 244 249 261 268 268 274 270 268 267 272 273 269 262 258 270 274 279 281 282 284 285 286 287
245 243 241 243 247 249 249 247 247 247 250 252 252 250 250 249 248 251 248 244 243 245 256 266 263 262 266 272 275 276 277 273 274 268 269 269 277 280 282 284 284 285 287
253 249 243 242 245 247 247 247 248 251 252 254 254 251 251 249 248 245 246 246 244 245 249 260 265 261 260 260 271 271 271 272 275 275 262 261 270 275 280 281 281 282 285
253 253 251 251 251 250 249 250 251 252 254 254 253 252 252 249 250 249 245 245 244 244 245 251 257 258 257 259 262 267 269 266 271 276 264 267 266 268 272 277 279 282 284
259 261 260 259 256 253 249 251 252 252 254 256 254 252 251 251 254 253 249 247 242 242 243 246 251 252 248 247 249 254 262 280 276 265 276 274 273 274 274 270 275 283 284
262 262 258 259 258 255 256 256 259 257 255 254 256 256 254 247 246 247 247 248 245 243 242 243 248 249 250 246 248 249 263 273 269 243 277 279 273 275 281 278 288 285 283
266 264 264 261 261 262 259 259 259 259 256 254 255 257 255 249 245 247 243 241 241 241 244 247 250 252 257 248 242 240 242 255 264 280 278 274 270 272 280 284 287 283 283
265 264 264 263 263 263 262 263 264 259 257 255 253 253 255 255 248 247 249 247 246 242 239 241 248 255 258 254 241 247 255 264 276 263 257 265 273 278 288 281 277 280 286
266 264 264 263 263 265 261 262 264 262 257 256 255 253 253 255 250 245 248 249 251 249 239 236 248 252 254 246 235 229 224 240 258 246 227 256 278 291 284 273 273 278 284
265 267 264 262 262 265 262 260 261 258 258 259 256 252 247 250 253 245 246 246 249 250 242 236 236 237 239 230 215 223 224 231 245 251 208 233 258 283 286 268 283 288 283